Regional Weather Roundup
Issued by NWS Sterling, VA

Home | Current Version | Previous Version | Graphics & Text | Print | Product List | Glossary On
Versions: 1 2 3 4 5 6 7 8 9 10 11 12 13 14 15 16 17 18 19 20 21 22 23 24 25 26 27 28 29 30 31 32 33 34 35 36 37 38 39 40 41 42 43 44 45 46 47 48 49 50
000
ASUS41 KLWX 292010
RWRLWX

REGIONAL WEATHER ROUNDUP
NATIONAL WEATHER SERVICE BALTIMORE MD/WASHINGTON DC
400 PM EDT SAT AUG 29 2015

Note: "FAIR" indicates few or no clouds below 12,000 feet
with no significant weather and/or obstructions to visibility.
 TC=TEMPERATURE CELSIUS

 * =Non NWS site. Station does not report precipitation (e.g. rain,
    snow, etc.), thunder, or fog.

DCZ001-MDZ009-015-VAZ040>042-051-053>054-292100-
WASHINGTON METRO

CITY           SKY/WX    TMP DP  RH WIND       PRES   REMARKS
WASHINGTON NAT PTSUNNY   88  62  41 S8        30.12F
DULLES         PTSUNNY   85  63  47 VRB7      30.12F
ANDREWS AFB    MOSUNNY   87  61  40 S7        30.12F
FT BELVOIR     SUNNY     87  62  44 S8        30.12F
QUANTICO       SUNNY     83  67  58 S7        30.13F
COLLEGE PARK*  SUNNY     88  59  37 W7        30.12F
LEESBURG*      SUNNY     90  66  45 SW7       30.13F HX  92
MANASSAS*      SUNNY     88  64  45 S7        30.12F
GAITHERSBURG*  PTSUNNY   84  61  45 CALM      30.16F

$$

MDZ006>007-011-014-292100-
BALTIMORE METRO

CITY           SKY/WX    TMP DP  RH WIND       PRES   REMARKS
BWI AIRPORT    PTSUNNY   84  65  52 SE8       30.11F
MD SCIENCE CTR   N/A     83  65  54 MISG      30.12F
MARTIN STATE   MOSUNNY   84  68  58 S15       30.14F
ANNAPOLIS      SUNNY     82  63  52 S13       30.13F
FORT MEADE*    MOSUNNY   84  63  48 S3        30.14F

$$

MDZ012-015-019>023-292100-
MARYLAND EASTERN SHORE

CITY           SKY/WX    TMP DP  RH WIND       PRES   REMARKS
OCEAN CITY     MOSUNNY   80  59  48 S8        30.17F
SALISBURY      PTSUNNY   82  61  48 S12       30.15F
BAY BRIDGE AP*   N/A     81  59  47 S10       30.14F
CAMBRIDGE*     SUNNY     82  59  44 S8        30.15S
EASTON*        MOSUNNY   86  63  45 SW9       30.18F

$$

MDZ017>025-292100-
SOUTHERN MARYLAND

CITY           SKY/WX    TMP DP  RH WIND       PRES   REMARKS
PATUXENT RIVER CLOUDY    82  62  50 SE13      30.14F
ST INIGOES     MOSUNNY   81  63  54 SE7       30.14F
LEONARDTOWN*   MOSUNNY   82  61  47 CALM      30.16F

$$

MDZ003>005-292100-
NORTH CENTRAL MARYLAND

CITY           SKY/WX    TMP DP  RH WIND       PRES   REMARKS
FREDERICK*     SUNNY     90  64  43 S7        30.14F HX  91
HAGERSTOWN APT SUNNY     87  56  34 S6        30.12F
WESTMINSTER*   PTSUNNY   86  59  39 S8        30.14F

$$

MDZ501>502-292100-
WESTERN MARYLAND

CITY           SKY/WX    TMP DP  RH WIND       PRES   REMARKS
OAKLAND*       SUNNY     75  54  46 W7        30.24F
CUMBERLAND*    SUNNY     90  54  29 W3        30.15S

$$

VAZ025>031-292100-
SHENANDOAH VALLEY

CITY           SKY/WX    TMP DP  RH WIND       PRES   REMARKS
WINCHESTER*    PTSUNNY   90  63  40 SE13      30.12F HX  90
FRONT ROYAL*   FAIR      86  64  48 E3        30.11F
LURAY*         CLOUDY    86  55  35 CALM      30.12F
NEW MARKET*    CLOUDY    85  61  43 CALM      30.11S
STAUNTON*      PTSUNNY   90  51  26 SW9       30.16F
WAYNESBORO*    MOCLDY    85  62  46 SE8       30.16F

$$

WVZ021-048>050-054>055-292100-
EASTERN WEST VIRGINIA PANHANDLE

CITY           SKY/WX    TMP DP  RH WIND       PRES   REMARKS
MARTINSBURG    SUNNY     88  57  34 W5        30.12F
PETERSBURG*    SUNNY     88  57  34 SE5       30.12F

$$

VAZ036>039-050-292100-
CENTRAL FOOTHILLS

CITY           SKY/WX    TMP DP  RH WIND       PRES   REMARKS
CHARLOTTESVILL PTSUNNY   87  61  41 S8        30.13F
CULPEPER*      SUNNY     87  64  46 S5        30.12F
ORANGE*        MOSUNNY   90  59  35 S12       30.14F
GORDONSVILLE*  FAIR      88  63  42 S8        30.12F
WARRENTON*     FAIR      90  62  40 SW3       30.12F HX  90

$$

VAZ055>057-292100-
NORTH AND CENTRAL PIEDMONT

CITY           SKY/WX    TMP DP  RH WIND       PRES   REMARKS
FREDERICKSBRG* MOSUNNY   90  61  38 S12       30.12F HX  90
STAFFORD*      MOSUNNY   86  57  37 S6        30.16F

$$

NCZ024-NYZ072-PAZ021-071-VAZ022-071-292100-
OTHER REGIONAL OBSERVATIONS

CITY           SKY/WX    TMP DP  RH WIND       PRES   REMARKS
NEW YORK CITY  MOSUNNY   87  54  32 CALM      30.14F
PHILADELPHIA   MOSUNNY   86  59  39 SW7       30.13F
PITTSBURGH     MOSUNNY   82  59  45 VRB3      30.13F
ROANOKE        CLOUDY    82  59  45 S7        30.19F
RICHMOND       PTSUNNY   87  61  41 S9        30.14F
RALEIGH        PTSUNNY   83  59  44 VRB3      30.17F

$$

ANZ530>537-292100-
MARINE OBSERVATIONS

STATION/POSITION TIME  TEMP    WIND        PRES
                       AIR SEA DIR/SP/G
                 (UTC) (F)     (DEG/KT/KT) (MB)
THOMAS PT LIGHT  NOT AVBL

$$



USA.gov is the U.S. government's official web portal to all federal, state and local government web resources and services.